Weather in Novonikolayevsk

Russia / Irkutsk Oblast     53°09′18″N   105°05′57″E
temp.,
°C
wind,
m/s
gust,
m/s
humid.,
%
clouds,
%
prec.,
mm/h
press.,
hPa
HPBL,
m
14 april, wed
wed1423:00−2nw51085100 0.1 1018931
02:00−3nw498781 0.3 1020909
05:00−3wnw4888100 0.1 1021761
08:00−3nw5877100 0.1 1021843
11:00−1wnw6958100 0.1 10211565
14:00+1nw6104449 0.4 10191944
17:00+1nw6947100 0.1 10181973
20:00−2nw410715 0.1 1019673
15 april, thu
thu1523:00−4w278618 0.0 1019226
02:00−3sw2778100 0.0 1015295
05:00−3ssw2688100 0.2 1013373
08:00−2sw3776100 0.3 1011600
11:000nw5775100 0.9 10111057
14:00+1nw81249100 1.5 10142152
17:00+1nnw712535 0.2 10171894
20:00−3nw5106790 0.2 1021901
16 april, fri
fri1623:00−4nw3981100 0.0 1023548
02:00−4w268468 0.0 1023376
05:00−4sw148898 0.0 1023217
08:00−2sw3769100 0.0 1022444
11:00+3wsw475890 0.0 10191126
14:00+6w474894 0.0 10171426
17:00+8w35455 0.0 10151202
20:00+2s11675 0.0 101510
17 april, sat
sat1723:000se11685 0.0 101410
02:000sse11685 0.0 101310
05:00−1sse116799 0.0 101210
08:00+4ssw125014 0.0 1010105
11:00+11wsw12385 0.0 1008696
14:00+13s22325 0.0 10041376
17:00+13wsw23336 0.0 10042154
20:00+7ene226195 0.0 100510
18 april, sun
sun1823:00+4n3479100 0.0 1008147
02:00+1n3689100 0.0 1010444
05:000nne3585100 0.1 1012466
08:00−1nne248694 0.8 1015516
11:00+2nne2264100 0.1 1015956
14:00+3n1161100 0.1 1014958
17:00+5nne0056100 0.0 10141219
20:00+2ene1269100 0.0 101350